Lewis Run, PA

5:14 PM EST on December 07, 2016 (GMT -0500)
Bradford Regional

Weather History for KBFD - October, 2012

Change the Weather History Date:

Saturday, October 6, 2012

  Actual Average Record
Temperature  
Mean Temperature 52 °F 49 °F  
Max Temperature 60 °F 61 °F 79 °F (2007)
Min Temperature 43 °F 38 °F 18 °F (1958)
Degree Days  
Heating Degree Days 14 11  
Month to date heating degree days 63  
Since 1 July heating degree days 480  
Cooling Degree Days 0 0  
Month to date cooling degree days 0  
Year to date cooling degree days 192  
Growing Degree Days 2 (Base 50)    
Moisture  
Dew Point 41 °F    
Average Humidity 78    
Maximum Humidity 90    
Minimum Humidity 50    
Precipitation  
Precipitation 0.35 in 0.12 in 1.34 in (1959)
Month to date precipitation 0.73  
Year to date precipitation 34.60  
Sea Level Pressure  
Sea Level Pressure 29.92 in    
Wind  
Wind Speed 7 mph (WNW)    
Max Wind Speed 17 mph    
Max Gust Speed 25 mph    
Visibility 8 miles    
Events Rain    
T = Trace of Precipitation, MM = Missing Value Source: NWS Daily Summary

Daily Weather History Graph

Daily Weather History Graph

Search for Another Location

Airport or City:

Trip Planner

Search our weather history database for the weather conditions in past years. The results will help you decide how hot, cold, wet, or windy it might be!

Date:

Astronomy

Oct. 06, 2012 Rise Set
Actual Time 7:17 AM EDT 6:46 PM EDT
Civil Twilight 6:49 AM EDT 7:14 PM EDT
Nautical Twilight 6:17 AM EDT 7:46 PM EDT
Astronomical Twilight 5:44 AM EDT 8:19 PM EDT
Moon 10:57 PM EDT (10/6) 1:14 PM EDT (10/6)
Length of Visible Light 12h 25m
Length of Day
11h 29m
Waning Gibbous, 65% of the Moon is Illuminated
Oct 6
Waning Gibbous
Oct 8
Last Quarter
Oct 15
New
Oct 21
First Quarter
Oct 29
Full

Hourly Weather History & Observations

Time (EDT) Temp. Windchill Dew Point Humidity Pressure Visibility Wind Dir Wind Speed Gust Speed Precip Events Conditions
12:53 AM 60.1 °F - 55.0 °F 83% 29.83 in 7.0 mi Calm Calm - 0.00 in   Overcast
1:53 AM 59.0 °F - 55.0 °F 87% 29.82 in 7.0 mi Calm Calm - N/A   Overcast
2:26 AM 57.9 °F - 55.0 °F 90% 29.84 in 4.0 mi West 4.6 mph - 0.02 in Rain Light Rain
2:33 AM 57.9 °F - 55.0 °F 90% 29.84 in 4.0 mi Variable 3.5 mph - 0.02 in Rain Light Rain
2:53 AM 57.0 °F - 54.0 °F 89% 29.79 in 4.0 mi NW 10.4 mph - 0.03 in Rain Light Rain
3:02 AM 55.0 °F - 52.0 °F 89% 29.83 in 7.0 mi WNW 8.1 mph - 0.01 in Rain Light Rain
3:37 AM 53.1 °F - 50.0 °F 89% 29.81 in 9.0 mi West 3.5 mph - 0.02 in Rain Light Rain
3:53 AM 53.1 °F - 48.9 °F 86% 29.79 in 10.0 mi WNW 6.9 mph - 0.02 in Rain Light Rain
4:53 AM 50.0 °F - 46.0 °F 86% 29.84 in 4.0 mi WNW 11.5 mph 21.9 mph 0.15 in Rain Rain
5:32 AM 48.9 °F - 45.0 °F 86% 29.84 in 5.0 mi NNW 4.6 mph 17.3 mph 0.10 in Rain Rain
5:53 AM 48.0 °F - 45.0 °F 89% 29.84 in 5.0 mi WNW 6.9 mph - 0.11 in Rain Light Rain
6:19 AM 48.0 °F - 44.1 °F 86% 29.85 in 8.0 mi NW 8.1 mph - 0.03 in Rain Light Rain
6:53 AM 46.9 °F - 43.0 °F 86% 29.85 in 10.0 mi West 9.2 mph - 0.03 in   Overcast
7:53 AM 46.9 °F - 43.0 °F 86% 29.86 in 2.5 mi WNW 8.1 mph - 0.01 in Rain Light Rain
8:26 AM 45.0 °F 39.3 °F 42.1 °F 90% 29.88 in 5.0 mi WNW 11.5 mph - 0.00 in Rain Light Rain
8:45 AM 45.0 °F 38.9 °F 41.0 °F 86% 29.89 in 4.0 mi WNW 12.7 mph - 0.00 in   Overcast
8:53 AM 45.0 °F 39.7 °F 41.0 °F 86% 29.90 in 4.0 mi WNW 10.4 mph - 0.00 in   Overcast
8:56 AM 45.0 °F 39.7 °F 41.0 °F 86% 29.90 in 3.0 mi WNW 10.4 mph - N/A   Overcast
9:14 AM 45.0 °F 38.9 °F 41.0 °F 86% 29.90 in 9.0 mi WNW 12.7 mph - N/A   Overcast
9:25 AM 45.0 °F 39.3 °F 41.0 °F 86% 29.90 in 10.0 mi WNW 11.5 mph - N/A   Overcast
9:30 AM 45.0 °F 40.6 °F 41.0 °F 86% 29.90 in 10.0 mi WNW 8.1 mph - N/A   Overcast
9:39 AM 45.0 °F 40.6 °F 41.0 °F 86% 29.90 in 10.0 mi WNW 8.1 mph - N/A   Overcast
9:41 AM 46.0 °F 43.1 °F 42.1 °F 86% 29.90 in 10.0 mi WNW 5.8 mph - N/A   Overcast
9:51 AM 46.4 °F 42.4 °F 41.0 °F 81% 29.90 in 10.0 mi West 8.1 mph - N/A   Overcast
9:53 AM 46.0 °F 42.5 °F 41.0 °F 83% 29.91 in 10.0 mi West 6.9 mph - N/A   Overcast
10:33 AM 46.0 °F 41.9 °F 41.0 °F 83% 29.92 in 10.0 mi WNW 8.1 mph - N/A   Overcast
10:53 AM 46.0 °F 41.4 °F 41.0 °F 83% 29.93 in 10.0 mi West 9.2 mph - N/A   Overcast
11:25 AM 46.9 °F - 41.0 °F 80% 29.94 in 10.0 mi West 10.4 mph 19.6 mph N/A   Overcast
11:53 AM 48.0 °F - 37.9 °F 68% 29.93 in 10.0 mi West 15.0 mph 21.9 mph N/A   Mostly Cloudy
12:53 PM 48.9 °F - 37.0 °F 64% 29.92 in 10.0 mi West 13.8 mph 20.7 mph N/A   Mostly Cloudy
1:53 PM 50.0 °F - 36.0 °F 59% 29.93 in 10.0 mi WNW 17.3 mph 25.3 mph N/A   Overcast
2:53 PM 51.1 °F - 34.0 °F 52% 29.94 in 10.0 mi West 15.0 mph 20.7 mph N/A   Mostly Cloudy
3:53 PM 52.0 °F - 34.0 °F 50% 29.94 in 10.0 mi West 8.1 mph - N/A   Scattered Clouds
5:53 PM 48.0 °F - 33.1 °F 56% 29.99 in 10.0 mi West 12.7 mph 21.9 mph N/A   Overcast
6:53 PM 46.9 °F - 33.1 °F 59% 30.01 in 10.0 mi WNW 16.1 mph 20.7 mph N/A   Overcast
7:53 PM 45.0 °F 39.7 °F 33.1 °F 63% 30.03 in 10.0 mi WNW 10.4 mph - N/A   Overcast
8:43 PM 45.0 °F 38.5 °F 33.1 °F 63% 30.03 in 10.0 mi West 13.8 mph 20.7 mph N/A   Overcast
8:53 PM 44.1 °F 39.0 °F 34.0 °F 68% 30.06 in 10.0 mi West 9.2 mph - N/A   Overcast
9:04 PM 44.1 °F 38.6 °F 34.0 °F 68% 30.04 in 10.0 mi West 10.4 mph - N/A   Overcast
9:25 PM 44.1 °F 40.8 °F 34.0 °F 68% 30.04 in 10.0 mi West 5.8 mph - N/A   Overcast
9:39 PM 44.1 °F 39.5 °F 34.0 °F 68% 30.05 in 10.0 mi West 8.1 mph - N/A   Overcast
9:53 PM 44.1 °F 40.8 °F 34.0 °F 68% 30.07 in 10.0 mi West 5.8 mph - N/A   Overcast
10:53 PM 43.0 °F 39.5 °F 35.1 °F 74% 30.07 in 10.0 mi West 5.8 mph - N/A   Overcast
11:53 PM 43.0 °F 40.3 °F 35.1 °F 74% 30.06 in 10.0 mi West 4.6 mph - N/A   Overcast